Location: Dąbrówka
(52.2799°N, 15.8070°E)
Time: 04:57:01
(UTC+01:00)

ISS - Visible Passes

Search period start: 24 November 2017 00:00
Search period end: 04 December 2017 00:00
Orbit: 402 x 407 km, 51.6° (Epoch: 24 November)

Date Brightness Start Highest point End Pass type
(mag) Time Alt. Az. Time Alt. Az. Time Alt. Az.
28 Nov -1.2 18:17:08 10° SSW 18:17:50 13° S 18:17:50 13° S visible
29 Nov -1.5 17:26:00 10° SSE 17:27:23 12° SE 17:27:45 12° SE visible
29 Nov -0.7 19:00:07 10° SW 19:00:25 12° SW 19:00:25 12° SW visible
30 Nov -2.3 18:08:02 10° SW 18:10:15 27° S 18:10:15 27° S visible
01 Dec -2.1 17:16:11 10° SSW 17:18:45 21° SSE 17:20:01 17° ESE visible
01 Dec -1.1 18:51:35 10° WSW 18:52:40 19° WSW 18:52:40 19° WSW visible
02 Dec -1.5 16:24:44 10° S 16:26:34 14° SE 16:28:24 10° ESE visible
02 Dec -3.3 17:59:18 10° SW 18:02:23 48° SSE 18:02:23 48° SSE visible
03 Dec -2.8 17:07:09 10° SW 17:10:10 34° SSE 17:12:04 18° E visible
03 Dec -1.6 18:43:08 10° W 18:44:42 26° WSW 18:44:42 26° WSW visible
